05.05.2024;06:00;7
05.05.2024;05:00;7
05.05.2024;04:00;8
05.05.2024;03:00;10
05.05.2024;02:00;10
05.05.2024;01:00;15
04.05.2024;24:00;10
04.05.2024;23:00;14
04.05.2024;22:00;13
04.05.2024;21:00;12
04.05.2024;20:00;9
04.05.2024;19:00;8
04.05.2024;18:00;8
04.05.2024;17:00;6
04.05.2024;16:00;4
04.05.2024;15:00;3
04.05.2024;14:00;3
04.05.2024;13:00;3
04.05.2024;12:00;3
04.05.2024;11:00;2
04.05.2024;10:00;3
04.05.2024;09:00;4
04.05.2024;08:00;6
04.05.2024;07:00;6
04.05.2024;06:00;6
04.05.2024;05:00;7
04.05.2024;04:00;7
04.05.2024;03:00;8
04.05.2024;02:00;8
04.05.2024;01:00;8
03.05.2024;24:00;9
03.05.2024;23:00;10
03.05.2024;22:00;10
03.05.2024;21:00;10
03.05.2024;20:00;12
03.05.2024;19:00;11
03.05.2024;18:00;14
03.05.2024;17:00;12
03.05.2024;16:00;5
03.05.2024;15:00;10
03.05.2024;14:00;8
03.05.2024;13:00;5
03.05.2024;12:00;3
03.05.2024;11:00;3
03.05.2024;10:00;2
03.05.2024;09:00;3
03.05.2024;08:00;3
03.05.2024;07:00;3
03.05.2024;06:00;3
03.05.2024;05:00;2
03.05.2024;04:00;3
03.05.2024;03:00;3
03.05.2024;02:00;5
03.05.2024;01:00;4
02.05.2024;24:00;6
02.05.2024;23:00;7
02.05.2024;22:00;7
02.05.2024;21:00;5
02.05.2024;20:00;4
02.05.2024;19:00;4
02.05.2024;18:00;4
02.05.2024;17:00;4
02.05.2024;16:00;4
02.05.2024;15:00;5
02.05.2024;14:00;6
02.05.2024;13:00;10
02.05.2024;12:00;10
02.05.2024;11:00;11
02.05.2024;10:00;13
02.05.2024;09:00;14
02.05.2024;08:00;14
02.05.2024;07:00;13
02.05.2024;06:00;13
02.05.2024;05:00;12
02.05.2024;04:00;11
02.05.2024;03:00;11
02.05.2024;02:00;14
02.05.2024;01:00;14
01.05.2024;24:00;14
01.05.2024;23:00;13
01.05.2024;22:00;11
01.05.2024;21:00;11
01.05.2024;20:00;10
01.05.2024;19:00;11
01.05.2024;18:00;13
01.05.2024;17:00;15
01.05.2024;16:00;15
01.05.2024;15:00;16
01.05.2024;14:00;16
01.05.2024;13:00;18
01.05.2024;12:00;17
01.05.2024;11:00;17
01.05.2024;10:00;19
01.05.2024;09:00;22
01.05.2024;08:00;23
01.05.2024;07:00;23
01.05.2024;06:00;24
01.05.2024;05:00;28
01.05.2024;04:00;31
01.05.2024;03:00;30
01.05.2024;02:00;31
01.05.2024;01:00;31
30.04.2024;24:00;34
30.04.2024;23:00;33
30.04.2024;22:00;38
30.04.2024;21:00;38
30.04.2024;20:00;35
30.04.2024;19:00;36
30.04.2024;18:00;36
30.04.2024;17:00;35
30.04.2024;16:00;34
30.04.2024;15:00;27
30.04.2024;14:00;24
30.04.2024;13:00;19
30.04.2024;12:00;19
30.04.2024;11:00;16
30.04.2024;10:00;16
30.04.2024;09:00;18
30.04.2024;08:00;17
30.04.2024;07:00;16
30.04.2024;06:00;14
30.04.2024;05:00;13
30.04.2024;04:00;15
30.04.2024;03:00;17
30.04.2024;02:00;18
30.04.2024;01:00;20
